Alturas, CA

9:51 PM PST on December 05, 2019 (GMT -0800)
Alturas Municipal

Weather History for KAAT - October, 2019

Change the Weather History Date:

Sunday, October 27, 2019

  Actual Average Record
Temperature  
Mean Temperature 32 °F 43 °F  
Max Temperature 46 °F 60 °F 83 °F (1968)
Min Temperature 17 °F 27 °F 7 °F (1919)
Degree Days  
Heating Degree Days 34 22  
Month to date heating degree days 566 475  
Since 1 July heating degree days 872 852  
Cooling Degree Days 0 0  
Month to date cooling degree days 0 0  
Year to date cooling degree days 217 156  
Moisture  
Dew Point 13 °F    
Average Humidity 44    
Maximum Humidity 72    
Minimum Humidity 18    
Precipitation  
Precipitation 0.00 in 0.05 in 0.77 in (1941)
Month to date precipitation 0.31 0.81  
Year to date precipitation 12.54 10.47  
Sea Level Pressure  
Sea Level Pressure 30.22 in    
Wind  
Wind Speed 9 mph ()    
Max Wind Speed 18 mph    
Max Gust Speed 26 mph    
Visibility 10.0 miles    
Events      
T = Trace of Precipitation, MM = Missing Value Source: Averaged Metar Reports

Daily Weather History Graph

Daily Weather History Graph

Search for Another Location

Airport or City:

Astronomy

Oct. 27, 2019 Rise Set
Actual Time 7:27 AM PDT 6:03 PM PDT
Civil Twilight 6:59 AM PDT 6:32 PM PDT
Nautical Twilight 6:26 AM PDT 7:04 PM PDT
Astronomical Twilight 5:54 AM PDT 7:36 PM PDT
Moon 6:41 AM PDT (10/27) 6:17 PM PDT (10/27)
Length of Visible Light 11h 32m
Length of Day
10h 35m
Waning Crescent, 0% of the Moon is Illuminated
Oct 27
Waning Crescent
Oct 27
New
Nov 4
First Quarter
Nov 12
Full
Nov 19
Last Quarter

Hourly Weather History & Observations

Time (PDT) Temp. Windchill Dew Point Humidity Pressure Visibility Wind Dir Wind Speed Gust Speed Precip Events Conditions
12:55 AM 33.1 °F 22.6 °F 19.9 °F 59% 30.14 in 10.0 mi NNE 16.1 mph 23.0 mph N/A   Clear
1:55 AM 32.0 °F 23.0 °F 17.1 °F 54% 30.14 in 10.0 mi NNE 11.5 mph - N/A   Clear
2:55 AM 32.0 °F 23.6 °F 17.1 °F 54% 30.15 in 10.0 mi NNE 10.4 mph 21.9 mph N/A   Clear
3:55 AM 30.9 °F 23.5 °F 18.0 °F 59% 30.14 in 10.0 mi NE 8.1 mph - N/A   Clear
4:55 AM 30.0 °F 22.4 °F 18.0 °F 61% 30.16 in 10.0 mi NNE 8.1 mph - N/A   Clear
5:55 AM 28.0 °F 22.8 °F 17.1 °F 63% 30.20 in 10.0 mi NE 4.6 mph - N/A   Clear
6:55 AM 27.0 °F 18.0 °F 17.1 °F 66% 30.22 in 10.0 mi North 9.2 mph - N/A   Clear
7:55 AM 28.0 °F 18.6 °F 19.9 °F 72% 30.23 in 10.0 mi NNE 10.4 mph - N/A   Clear
8:55 AM 33.1 °F 23.4 °F 18.0 °F 54% 30.25 in 10.0 mi NNE 13.8 mph 20.7 mph N/A   Clear
9:55 AM 36.0 °F 27.5 °F 18.0 °F 48% 30.27 in 10.0 mi NE 12.7 mph 20.7 mph N/A   Scattered Clouds
10:55 AM 37.9 °F 30.9 °F 18.0 °F 45% 30.27 in 10.0 mi East 10.4 mph 18.4 mph N/A   Mostly Cloudy
11:55 AM 37.9 °F 31.5 °F 17.1 °F 43% 30.27 in 10.0 mi NE 9.2 mph - N/A   Clear
12:55 PM 41.0 °F 35.2 °F 16.0 °F 36% 30.24 in 10.0 mi ENE 9.2 mph - N/A   Clear
1:55 PM 44.1 °F 38.1 °F 14.0 °F 30% 30.21 in 10.0 mi ENE 11.5 mph 18.4 mph N/A   Clear
2:55 PM 44.1 °F 38.6 °F 10.9 °F 26% 30.20 in 10.0 mi NE 10.4 mph 20.7 mph N/A   Clear
3:55 PM 45.0 °F 40.1 °F 9.0 °F 23% 30.19 in 10.0 mi NE 9.2 mph 18.4 mph N/A   Clear
4:55 PM 44.1 °F 39.0 °F 3.9 °F 19% 30.20 in 10.0 mi NE 9.2 mph 17.3 mph N/A   Clear
5:55 PM 39.9 °F 33.4 °F 3.9 °F 22% 30.21 in 10.0 mi NE 10.4 mph - N/A   Clear
6:55 PM 37.0 °F - 5.0 °F 26% 30.23 in 10.0 mi Calm Calm - N/A   Clear
7:55 PM 28.0 °F - 5.0 °F 38% 30.27 in 10.0 mi Calm Calm - N/A   Clear
8:55 PM 30.9 °F 25.2 °F 6.1 °F 35% 30.25 in 10.0 mi NE 5.8 mph - N/A   Clear
9:55 PM 26.1 °F - 6.1 °F 43% 30.29 in 10.0 mi Calm Calm - N/A   Clear
10:55 PM 27.0 °F 19.5 °F 6.1 °F 41% 30.28 in 10.0 mi NNE 6.9 mph - N/A   Clear
11:55 PM 26.1 °F 20.5 °F 7.0 °F 44% 30.27 in 10.0 mi North 4.6 mph - N/A   Clear